Welcome to the New NWS' Forecast!
Most changes are behind the scenes, but click here for differences you might notice.

Regional Weather Roundup (RWR)

Issued by National Weather Service (NWS)

                            
000
ASUS43 KOAX 230810
RWRNE 

WEATHER ROUNDUP FOR NEBRASKA
NATIONAL WEATHER SERVICE OMAHA NE
300 AM CDT TUE OCT 23 2018

NOTES: SATELLITE DATA IS BEING USED TO AUGMENT CLOUD COVER ABOVE
       12000 FEET.
       "FAIR" INDICATES FEW OR NO CLOUDS BELOW 12,000 FEET WITH NO
       SIGNIFICANT WEATHER AND/OR OBSTRUCTIONS TO VISIBILITY.

   
NEZ001>004-019>022-054>056-230900-
NEBRASKA PANHANDLE
  
CITY           SKY/WX    TMP DP  RH WIND       PRES   REMARKS
SCOTTSBLUFF    PTCLDY    42  32  67 E9        30.27R                  
ALLIANCE       PTCLDY    38  30  73 SE3       30.27S                  
CHADRON        PTCLDY    37  29  72 CALM      30.27S                  
GORDON         FAIR      30  27  86 CALM      30.30R                  
KIMBALL        CLOUDY    46  32  60 SE13      30.28R                  
SIDNEY         MOCLDY    40  31  70 SE8       30.28R WCI  34          
$$
 
NEZ057>060-069>072-079>082-230900-
SOUTHWEST NEBRASKA
  
CITY           SKY/WX    TMP DP  RH WIND       PRES   REMARKS
NORTH PLATTE   CLEAR     35  28  75 E3        30.30S                  
IMPERIAL       CLEAR     36  27  69 N3        30.28S                  
LEXINGTON      CLEAR     35  31  86 CALM      30.29S                  
MCCOOK         CLEAR     40  29  64 NE6       30.27R                  
OGALLALA       CLEAR     37  32  82 CALM      30.29S                  
$$
 
NEZ005>010-023>029-035>040-094-230900-
NORTH CENTRAL NEBRASKA
  
CITY           SKY/WX    TMP DP  RH WIND       PRES   REMARKS
VALENTINE      CLEAR     31  27  85 CALM      30.32R FOG              
AINSWORTH      CLEAR     34  29  82 CALM      30.31S                  
BROKEN BOW     CLEAR     35  30  82 NW3       30.30R                  
O'NEILL        CLEAR     36  30  80 CALM      30.33R                  
ORD            CLEAR     33  29  85 CALM      30.30R                  
THEDFORD       CLEAR     34  29  82 CALM      30.32R                  
$$
 
NEZ041-046>049-061>064-073>077-083>087-230900-
SOUTH CENTRAL NEBRASKA
  
CITY           SKY/WX    TMP DP  RH WIND       PRES   REMARKS
GRAND ISLAND   CLEAR     38  30  73 N3        30.30R HAZE             
AURORA         CLEAR     37  31  78 N7        30.29R WCI  32          
HASTINGS       CLEAR     39  31  72 NE6       30.29R WCI  35          
HEBRON         CLEAR     42  34  72 CALM      30.28R                  
HOLDREGE       CLEAR     38  30  72 NE7       30.28R WCI  33          
KEARNEY        CLEAR     40  29  64 N5        30.30R                  
YORK           CLEAR     37  32  81 NE8       30.29S WCI  31          
$$
 
NEZ011>018-030>034-042>045-230900-
NORTHEAST NEBRASKA
  
CITY           SKY/WX    TMP DP  RH WIND       PRES   REMARKS
NORFOLK        CLEAR     35  31  85 W3        30.31R                  
ALBION         CLEAR     32  31  94 NW5       30.31S WCI  28          
BLAIR          PTCLDY    46  32  57 NE8       30.29R                  
COLUMBUS       CLEAR     34  31  88 N3        30.31R                  
FREMONT        CLEAR     40  32  72 W3        30.31R                  
TEKAMAH        CLEAR     39  31  72 N8        30.31R WCI  33          
WAYNE          CLEAR     30  26  84 CALM      30.32S                  
$$

NEZ050>053-065>068-078-088>093-230900-
SOUTHEAST NEBRASKA
  
CITY           SKY/WX    TMP DP  RH WIND       PRES   REMARKS
LINCOLN        CLEAR     41  32  70 N6        30.30R                  
OMAHA EPPLEY   PTCLDY    45  32  60 NW7       30.30R                  
BEATRICE       CLEAR     43  35  73 NE7       30.27S                  
FALLS CITY     PTCLDY    43  34  70 CALM      30.26R                  
NEBRASKA CITY  CLEAR     45  30  55 N9        30.28R                  
PLATTSMOUTH    CLEAR     48  33  55 NE7       30.29R                  
$$

NEZ044-045-051>053-067-230900-
OMAHA AREA
  
CITY           SKY/WX    TMP DP  RH WIND       PRES   REMARKS
OMAHA EPPLEY   PTCLDY    45  32  60 NW7       30.30R                  
BLAIR          PTCLDY    46  32  57 NE8       30.29R                  
FREMONT        CLEAR     40  32  72 W3        30.31R                  
MILLARD        CLEAR     44  34  66 CALM      30.30R                  
OFFUTT AFB     CLEAR     47  33  58 N8        30.29R                  
PLATTSMOUTH    CLEAR     48  33  55 NE7       30.29R                  
WAHOO          FAIR      40  32  73 N8        30.30R WCI  35          
$$